| time (UTC) | temp F | wind direction | speed MPH | gust MPH | rain 1hr in | rain 24hr in | rain mn in | humidity % | barometer mb |
| 20260505102017 | 62 | 203 | 7.0 | 14.0 | 0.00 | 0.00 | 0.00 | 68 | 1002.9 |
| 20260505101017 | 63 | 225 | 7.0 | 14.0 | 0.00 | 0.00 | 0.00 | 68 | 1002.8 |
| 20260505100017 | 63 | 225 | 9.0 | 16.0 | 0.00 | 0.00 | 0.00 | 68 | 1002.8 |
| 20260505095016 | 63 | 225 | 8.0 | 13.0 | 0.00 | 0.00 | 0.00 | 67 | 1002.8 |
| 20260505094017 | 63 | 225 | 8.0 | 12.0 | 0.00 | 0.00 | 0.00 | 67 | 1002.8 |
| 20260505093036 | 64 | 225 | 10.0 | 19.0 | 0.00 | 0.00 | 0.00 | 66 | 1002.8 |
| 20260505092017 | 64 | 225 | 10.0 | 19.0 | 0.00 | 0.00 | 0.00 | 66 | 1002.6 |
| 20260505091017 | 64 | 225 | 11.0 | 18.0 | 0.00 | 0.00 | 0.00 | 64 | 1002.2 |
| 20260505090017 | 65 | 225 | 13.0 | 22.0 | 0.00 | 0.00 | 0.00 | 63 | 1002.3 |
| 20260505085017 | 65 | 225 | 11.0 | 24.0 | 0.00 | 0.00 | 0.00 | 61 | 1002.0 |
| 20260505084016 | 66 | 225 | 11.0 | 18.0 | 0.00 | 0.00 | 0.00 | 61 | 1002.1 |
| 20260505083017 | 66 | 225 | 14.0 | 21.0 | 0.00 | 0.00 | 0.00 | 59 | 1002.0 |
| 20260505082017 | 67 | 225 | 15.0 | 24.0 | 0.00 | 0.00 | 0.00 | 59 | 1001.9 |
| 20260505081057 | 67 | 225 | 14.0 | 27.0 | 0.00 | 0.00 | 0.00 | 59 | 1002.1 |
| 20260505080037 | 67 | 225 | 8.0 | 16.0 | 0.00 | 0.00 | 0.00 | 59 | 1002.1 |
| 20260505075017 | 66 | 203 | 8.0 | 16.0 | 0.00 | 0.00 | 0.00 | 61 | 1002.0 |
| 20260505074017 | 66 | 225 | 8.0 | 12.0 | 0.00 | 0.00 | 0.00 | 62 | 1001.8 |
| 20260505073017 | 65 | 203 | 9.0 | 14.0 | 0.00 | 0.00 | 0.00 | 64 | 1001.6 |
| 20260505072017 | 65 | 225 | 7.0 | 12.0 | 0.00 | 0.00 | 0.00 | 64 | 1001.6 |
| 20260505071017 | 65 | 225 | 7.0 | 11.0 | 0.00 | 0.00 | 0.00 | 64 | 1001.5 |
| 20260505070017 | 65 | 203 | 8.0 | 13.0 | 0.00 | 0.00 | 0.00 | 64 | 1001.4 |
| 20260505065017 | 65 | 203 | 7.0 | 13.0 | 0.00 | 0.00 | 0.00 | 65 | 1001.4 |
| 20260505064037 | 65 | 203 | 8.0 | 16.0 | 0.00 | 0.00 | 0.00 | 66 | 1001.5 |
| 20260505063057 | 65 | 203 | 7.0 | 12.0 | 0.00 | 0.00 | 0.00 | 67 | 1001.6 |
| 20260505062017 | 65 | 203 | 8.0 | 17.0 | 0.00 | 0.00 | 0.00 | 67 | 1001.8 |
| 20260505061057 | 65 | 203 | 8.0 | 15.0 | 0.00 | 0.00 | 0.00 | 64 | 1001.8 |
| 20260505060057 | 65 | 203 | 8.0 | 13.0 | 0.00 | 0.00 | 0.00 | 64 | 1001.8 |
| 20260505055017 | 65 | 203 | 9.0 | 16.0 | 0.00 | 0.00 | 0.00 | 65 | 1001.9 |
| 20260505054017 | 65 | 203 | 9.0 | 16.0 | 0.00 | 0.00 | 0.00 | 65 | 1002.0 |
| 20260505053017 | 65 | 203 | 7.0 | 10.0 | 0.00 | 0.00 | 0.00 | 65 | 1002.2 |
| 20260505052037 | 65 | 203 | 7.0 | 12.0 | 0.00 | 0.00 | 0.00 | 65 | 1002.3 |
| 20260505051017 | 66 | 203 | 8.0 | 15.0 | 0.00 | 0.00 | 0.00 | 65 | 1002.4 |
| 20260505041017 | 64 | 203 | 5.0 | 9.0 | 0.00 | 0.00 | 0.00 | 68 | 1002.6 |
| 20260505040057 | 64 | 203 | 4.0 | 9.0 | 0.00 | 0.00 | 0.00 | 68 | 1002.6 |
| 20260505035016 | 64 | 180 | 4.0 | 11.0 | 0.00 | 0.00 | 0.00 | 68 | 1002.7 |
| 20260505034017 | 64 | 203 | 5.0 | 13.0 | 0.00 | 0.00 | 0.00 | 68 | 1002.6 |
| 20260505033037 | 64 | 203 | 7.0 | 13.0 | 0.00 | 0.00 | 0.00 | 68 | 1002.7 |
| 20260505032017 | 64 | 180 | 5.0 | 12.0 | 0.00 | 0.00 | 0.00 | 69 | 1002.7 |
| 20260505031037 | 64 | 180 | 6.0 | 9.0 | 0.00 | 0.00 | 0.00 | 69 | 1002.8 |
| 20260505030516 | 64 | 203 | 3.0 | 7.0 | 0.00 | 0.00 | 0.00 | 68 | 1002.7 |
| 20260505025557 | 64 | 180 | 5.0 | 12.0 | 0.00 | 0.00 | 0.00 | 68 | 1002.7 |
| 20260505024557 | 64 | 180 | 4.0 | 11.0 | 0.00 | 0.00 | 0.00 | 68 | 1002.7 |
| 20260505023516 | 64 | 203 | 5.0 | 9.0 | 0.00 | 0.00 | 0.00 | 67 | 1002.6 |
| 20260505022516 | 64 | 180 | 4.0 | 8.0 | 0.00 | 0.00 | 0.00 | 67 | 1002.7 |
| 20260505021516 | 64 | 203 | 4.0 | 8.0 | 0.00 | 0.00 | 0.00 | 66 | 1002.7 |
| 20260505020516 | 65 | 180 | 4.0 | 8.0 | 0.00 | 0.00 | 0.00 | 65 | 1002.6 |
| 20260505015516 | 65 | 180 | 3.0 | 8.0 | 0.00 | 0.00 | 0.00 | 64 | 1002.6 |
| 20260505014517 | 65 | 180 | 3.0 | 10.0 | 0.00 | 0.00 | 0.00 | 63 | 1002.7 |
| 20260505013517 | 66 | 180 | 5.0 | 9.0 | 0.00 | 0.00 | 0.00 | 61 | 1002.7 |
| 20260505012516 | 66 | 203 | 7.0 | 11.0 | 0.00 | 0.00 | 0.00 | 60 | 1002.7 |
| 20260505011537 | 66 | 203 | 8.0 | 13.0 | 0.00 | 0.00 | 0.00 | 59 | 1002.7 |
| 20260505010517 | 67 | 203 | 8.0 | 13.0 | 0.00 | 0.00 | 0.00 | 58 | 1002.6 |
| 20260505005516 | 67 | 203 | 9.0 | 15.0 | 0.00 | 0.00 | 0.00 | 57 | 1002.5 |
| 20260505004536 | 68 | 203 | 7.0 | 12.0 | 0.00 | 0.00 | 0.00 | 56 | 1002.5 |
| 20260505003537 | 68 | 203 | 11.0 | 17.0 | 0.00 | 0.00 | 0.00 | 55 | 1002.2 |
| 20260505002516 | 69 | 203 | 9.0 | 17.0 | 0.00 | 0.00 | 0.00 | 53 | 1002.2 |
| 20260505001517 | 69 | 203 | 7.0 | 13.0 | 0.00 | 0.00 | 0.00 | 52 | 1002.0 |
| 20260505000517 | 69 | 203 | 9.0 | 14.0 | 0.00 | 0.00 | 0.00 | 52 | 1001.7 |
| 20260504235516 | 70 | 203 | 8.0 | 14.0 | 0.00 | 0.00 | 0.00 | 52 | 1001.7 |
| 20260504234516 | 70 | 225 | 8.0 | 15.0 | 0.00 | 0.00 | 0.00 | 53 | 1001.5 |
| 20260504233517 | 70 | 203 | 7.0 | 14.0 | 0.00 | 0.00 | 0.00 | 52 | 1001.3 |
| 20260504232517 | 71 | 203 | 7.0 | 14.0 | 0.00 | 0.00 | 0.00 | 52 | 1001.4 |
| 20260504231557 | 71 | 203 | 11.0 | 17.0 | 0.00 | 0.00 | 0.00 | 51 | 1001.3 |
| 20260504230517 | 71 | 203 | 9.0 | 22.0 | 0.00 | 0.00 | 0.00 | 52 | 1001.6 |
| 20260504225537 | 71 | 225 | 12.0 | 21.0 | 0.00 | 0.00 | 0.00 | 52 | 1001.7 |
| 20260504224537 | 71 | 225 | 13.0 | 23.0 | 0.00 | 0.00 | 0.00 | 51 | 1001.8 |
| 20260504223517 | 72 | 203 | 10.0 | 16.0 | 0.00 | 0.00 | 0.00 | 51 | 1001.8 |
| 20260504222517 | 72 | 225 | 10.0 | 17.0 | 0.00 | 0.00 | 0.00 | 51 | 1001.9 |
| 20260504221516 | 72 | 203 | 14.0 | 23.0 | 0.00 | 0.00 | 0.00 | 51 | 1001.9 |
| 20260504220537 | 71 | 203 | 11.0 | 21.0 | 0.00 | 0.00 | 0.00 | 52 | 1002.1 |
| 20260504215516 | 72 | 203 | 11.0 | 21.0 | 0.00 | 0.00 | 0.00 | 52 | 1002.2 |
| 20260504214517 | 72 | 203 | 10.0 | 21.0 | 0.00 | 0.00 | 0.00 | 51 | 1002.0 |
| 20260504213517 | 71 | 203 | 12.0 | 18.0 | 0.00 | 0.00 | 0.00 | 54 | 1002.0 |
| 20260504212517 | 71 | 203 | 10.0 | 23.0 | 0.00 | 0.00 | 0.00 | 53 | 1002.1 |
| 20260504211517 | 71 | 203 | 11.0 | 17.0 | 0.00 | 0.00 | 0.00 | 52 | 1002.1 |
| 20260504210537 | 72 | 203 | 9.0 | 15.0 | 0.00 | 0.00 | 0.00 | 53 | 1002.3 |
| 20260504205517 | 71 | 203 | 10.0 | 16.0 | 0.00 | 0.00 | 0.00 | 54 | 1002.4 |
| 20260504204517 | 72 | 203 | 11.0 | 20.0 | 0.00 | 0.00 | 0.00 | 53 | 1002.4 |
| 20260504203517 | 72 | 203 | 11.0 | 18.0 | 0.00 | 0.00 | 0.00 | 51 | 1002.6 |
| 20260504202537 | 72 | 225 | 11.0 | 19.0 | 0.00 | 0.00 | 0.00 | 53 | 1002.6 |
| 20260504201516 | 72 | 203 | 10.0 | 18.0 | 0.00 | 0.00 | 0.00 | 52 | 1002.8 |
| 20260504200617 | 71 | 225 | 11.0 | 22.0 | 0.00 | 0.00 | 0.00 | 51 | 1002.9 |
| 20260504195517 | 71 | 225 | 10.0 | 17.0 | 0.00 | 0.00 | 0.00 | 53 | 1003.0 |
| 20260504194517 | 71 | 180 | 11.0 | 19.0 | 0.00 | 0.00 | 0.00 | 51 | 1003.1 |
| 20260504193517 | 71 | 203 | 8.0 | 16.0 | 0.00 | 0.00 | 0.00 | 51 | 1003.3 |
| 20260504192517 | 71 | 203 | 9.0 | 17.0 | 0.00 | 0.00 | 0.00 | 52 | 1003.4 |
| 20260504191517 | 71 | 203 | 10.0 | 17.0 | 0.00 | 0.00 | 0.00 | 52 | 1003.6 |
| 20260504190517 | 70 | 225 | 8.0 | 18.0 | 0.00 | 0.00 | 0.00 | 53 | 1003.6 |
| 20260504185517 | 70 | 203 | 10.0 | 19.0 | 0.00 | 0.00 | 0.00 | 54 | 1003.9 |
| 20260504184537 | 70 | 203 | 9.0 | 18.0 | 0.00 | 0.00 | 0.00 | 53 | 1004.0 |
| 20260504183517 | 69 | 180 | 10.0 | 18.0 | 0.00 | 0.00 | 0.00 | 54 | 1004.0 |
| 20260504182517 | 69 | 203 | 10.0 | 16.0 | 0.00 | 0.00 | 0.00 | 54 | 1004.1 |
| 20260504181517 | 69 | 203 | 11.0 | 20.0 | 0.00 | 0.00 | 0.00 | 54 | 1004.1 |
| 20260504180517 | 69 | 180 | 10.0 | 17.0 | 0.00 | 0.00 | 0.00 | 56 | 1004.2 |
| 20260504175537 | 69 | 203 | 11.0 | 20.0 | 0.00 | 0.00 | 0.00 | 54 | 1004.2 |
| 20260504174517 | 69 | 225 | 10.0 | 18.0 | 0.00 | 0.00 | 0.00 | 53 | 1004.3 |
| 20260504173517 | 68 | 203 | 9.0 | 17.0 | 0.00 | 0.00 | 0.00 | 53 | 1004.3 |
| 20260504172617 | 68 | 203 | 9.0 | 14.0 | 0.00 | 0.00 | 0.00 | 53 | 1004.4 |
| 20260504171517 | 68 | 180 | 8.0 | 15.0 | 0.00 | 0.00 | 0.00 | 52 | 1004.5 |
| 20260504170517 | 68 | 203 | 10.0 | 16.0 | 0.00 | 0.00 | 0.00 | 54 | 1004.7 |
| 20260504150517 | 63 | 203 | 7.0 | 11.0 | 0.00 | 0.00 | 0.00 | 55 | 1005.5 |
| 20260504140537 | 60 | 203 | 7.0 | 12.0 | 0.00 | 0.00 | 0.00 | 58 | 1005.8 |
| 20260504130537 | 56 | 225 | 8.0 | 14.0 | 0.00 | 0.00 | 0.00 | 62 | 1006.1 |
| 20260504110558 | 50 | 203 | 7.0 | 12.0 | 0.00 | 0.00 | 0.00 | 68 | 1006.0 |